TimeAKST,TemperatureF,Dew PointF,Humidity,Sea Level PressureIn,VisibilityMPH,Wind Direction,Wind SpeedMPH,Gust SpeedMPH,PrecipitationIn,Events,Conditions,WindDirDegrees,DateUTC
12:53 AM,24.1,19.0,81,29.60,10.0,NNE,11.5,-,N/A,,Clear,30,2012-02-08 09:53:00
1:53 AM,26.1,18.0,71,29.58,10.0,NNE,15.0,-,N/A,,Clear,30,2012-02-08 10:53:00
2:53 AM,25.0,18.0,75,29.57,10.0,NNE,17.3,-,N/A,,Clear,20,2012-02-08 11:53:00
3:53 AM,27.0,18.0,69,29.55,10.0,NNE,15.0,-,N/A,,Clear,20,2012-02-08 12:53:00
4:53 AM,26.1,19.0,75,29.53,10.0,NNE,18.4,-,N/A,,Clear,20,2012-02-08 13:53:00
5:53 AM,27.0,21.0,78,29.51,10.0,NNE,20.7,-,N/A,,Scattered Clouds,20,2012-02-08 14:53:00
6:53 AM,28.0,21.0,75,29.51,10.0,NNE,21.9,-,N/A,,Overcast,20,2012-02-08 15:53:00
7:53 AM,28.9,19.9,69,29.51,10.0,NNE,25.3,-,N/A,,Overcast,20,2012-02-08 16:53:00
8:53 AM,28.9,21.0,72,29.50,10.0,NNE,24.2,31.1,N/A,,Overcast,30,2012-02-08 17:53:00
9:53 AM,27.0,19.9,75,29.50,10.0,North,23.0,-,N/A,,Scattered Clouds,10,2012-02-08 18:53:00
10:53 AM,28.9,21.0,72,29.49,9.0,NNE,24.2,33.4,N/A,,Partly Cloudy,20,2012-02-08 19:53:00
11:53 AM,28.9,19.9,69,29.49,10.0,NNE,23.0,-,N/A,,Mostly Cloudy,20,2012-02-08 20:53:00
12:53 PM,28.9,21.9,75,29.49,8.0,North,26.5,32.2,N/A,,Partly Cloudy,10,2012-02-08 21:53:00
1:53 PM,28.9,21.9,75,29.45,10.0,NNE,26.5,35.7,0.00,,Mostly Cloudy,20,2012-02-08 22:53:00
2:53 PM,30.0,21.9,72,29.43,9.0,NNE,25.3,33.4,N/A,,Mostly Cloudy,20,2012-02-08 23:53:00
3:53 PM,30.0,21.9,72,29.42,10.0,NNE,26.5,36.8,N/A,,Scattered Clouds,20,2012-02-09 00:53:00
4:53 PM,30.9,21.9,69,29.40,10.0,NNE,21.9,-,N/A,,Clear,20,2012-02-09 01:53:00
5:53 PM,30.9,21.9,69,29.39,10.0,NNE,23.0,-,N/A,,Partly Cloudy,30,2012-02-09 02:53:00
6:53 PM,30.9,24.1,76,29.37,10.0,NNE,21.9,-,N/A,,Clear,30,2012-02-09 03:53:00
7:53 PM,30.9,24.1,76,29.37,10.0,NNE,24.2,32.2,N/A,,Clear,30,2012-02-09 04:53:00
8:53 PM,32.0,25.0,75,29.39,10.0,NNE,19.6,-,N/A,,Clear,30,2012-02-09 05:53:00
9:53 PM,30.9,25.0,79,29.38,10.0,NNE,20.7,-,N/A,,Partly Cloudy,30,2012-02-09 06:53:00
10:53 PM,32.0,27.0,82,29.42,10.0,NE,17.3,-,N/A,,Scattered Clouds,40,2012-02-09 07:53:00
11:53 PM,33.1,28.9,85,29.47,10.0,NE,8.1,-,0.00,,Overcast,50,2012-02-09 08:53:00